Retour au catalogue

FENGYUN 1C DEB

ActifPO
NORAD 36269·DEBRIS·🇨🇳 China

Lancé May 10, 1999 depuis Taiyuan Satellite Launch Center

Loading…

Prochains Passages (prochaines 24 heures)

TLE

FraisSource: Space-Track

Époque: Sep 14, 2026, 04:02 UTC

1 36269U 99025DWW 26257.16854963  .00000688  00000-0  22556-3 0  9990
2 36269  99.1368 216.4513 0230474 205.3312 153.6424 14.28036387916465

Suivez FENGYUN 1C DEB en temps réel avec AllMySat

Download on the App Store